Weather History for KRCZ - January, 2013

Change the Weather History Date:

Friday, January 18, 2013

  Actual Average (KHFF) Record (KHFF)
Temperature  
Mean Temperature 40 °F -  
Max Temperature 49 °F 51 °F 61 °F (2015)
Min Temperature 32 °F 30 °F 15 °F (2005)
Degree Days  
Heating Degree Days 24    
Moisture  
Dew Point 28 °F    
Average Humidity 70    
Maximum Humidity 100    
Minimum Humidity 30    
Precipitation  
Precipitation 0.01 in - - ()
Sea Level Pressure  
Sea Level Pressure 30.41 in    
Wind  
Wind Speed 6 mph (North)    
Max Wind Speed 13 mph    
Max Gust Speed 20 mph    
Visibility 10 miles    
Events Rain    
Averages and records for this station are not official NWS values.
T = Trace of Precipitation, MM = Missing Value Source: NWS Daily Summary

Daily Weather History Graph

Daily Weather History Graph

Search for Another Location

Airport or City:

Trip Planner

Search our weather history database for the weather conditions in past years. The results will help you decide how hot, cold, wet, or windy it might be!

Date:

Astronomy

Jan. 18, 2013 Rise Set
Actual Time 7:25 AM EST 5:34 PM EST
Civil Twilight 6:58 AM EST 6:01 PM EST
Nautical Twilight 6:27 AM EST 6:32 PM EST
Astronomical Twilight 5:56 AM EST 7:02 PM EST
Moon 11:22 AM EST (1/18) 12:04 AM EST (1/18)
Length of Visible Light 11h 03m
Length of Day
10h 08m
Waxing Crescent, 47% of the Moon is Illuminated
Jan 18
Waxing Crescent
Jan 18
First Quarter
Jan 26
Full
Feb 3
Last Quarter
Feb 10
New

Hourly Weather History & Observations

Time (EST) Temp. Windchill Dew Point Humidity Pressure Visibility Wind Dir Wind Speed Gust Speed Precip Events Conditions
12:15 AM 36.5 °F 29.2 °F 36.0 °F 98% 30.15 in 10.0 mi North 10.4 mph 16.1 mph N/A Rain Light Rain
12:35 AM 36.1 °F 28.7 °F 35.8 °F 99% 30.15 in 10.0 mi North 10.4 mph - 0.01 in   Light Drizzle
12:55 AM 35.8 °F 30.1 °F 35.6 °F 99% 30.18 in 10.0 mi NW 6.9 mph - 0.01 in   Mostly Cloudy
1:15 AM 35.6 °F 29.2 °F 35.1 °F 98% 30.18 in 10.0 mi NNW 8.1 mph - N/A   Scattered Clouds
1:35 AM 35.6 °F 28.0 °F 35.4 °F 99% 30.21 in 10.0 mi NNW 10.4 mph - N/A   Mostly Cloudy
1:55 AM 36.0 °F 29.6 °F 35.6 °F 99% 30.23 in 10.0 mi NNW 8.1 mph - N/A   Overcast
2:15 AM 36.5 °F 31.0 °F 36.0 °F 98% 30.24 in 10.0 mi NNW 6.9 mph - N/A   Overcast
2:35 AM 36.1 °F 33.5 °F 35.6 °F 98% 30.23 in 10.0 mi North 3.5 mph - N/A   Mostly Cloudy
2:55 AM 36.0 °F - 35.6 °F 99% 30.25 in 10.0 mi Calm Calm - N/A   Scattered Clouds
3:15 AM 35.4 °F - 35.1 °F 99% 30.26 in 10.0 mi Calm Calm - N/A   Clear
3:35 AM 34.7 °F 31.8 °F 34.7 °F 100% 30.27 in 10.0 mi WNW 3.5 mph - N/A   Clear
3:55 AM 34.7 °F 30.6 °F 34.7 °F 100% 30.28 in 10.0 mi WNW 4.6 mph - N/A   Clear
4:15 AM 34.3 °F 31.4 °F 34.3 °F 100% 30.28 in 10.0 mi WNW 3.5 mph - N/A   Clear
4:35 AM 34.3 °F 31.4 °F 34.3 °F 100% 30.28 in 10.0 mi NW 3.5 mph - N/A   Clear
4:55 AM 33.8 °F - 33.8 °F 100% 30.28 in 7.0 mi Calm Calm - N/A   Clear
5:15 AM 33.6 °F 30.6 °F 33.6 °F 100% 30.29 in 7.0 mi NW 3.5 mph - N/A   Clear
5:35 AM 33.6 °F 29.4 °F 33.6 °F 100% 30.30 in 10.0 mi NW 4.6 mph - N/A   Clear
5:55 AM 33.8 °F - 33.8 °F 100% 30.30 in 10.0 mi Calm Calm - N/A   Clear
6:15 AM 33.8 °F 28.6 °F 33.4 °F 99% 30.31 in 10.0 mi NW 5.8 mph - N/A   Clear
6:35 AM 33.4 °F 29.1 °F 33.1 °F 99% 30.33 in 10.0 mi NW 4.6 mph - N/A   Clear
6:55 AM 33.3 °F 28.9 °F 32.5 °F 97% 30.35 in 10.0 mi NNW 4.6 mph - N/A   Clear
7:15 AM 33.3 °F - 32.0 °F 95% 30.36 in 10.0 mi Calm Calm - N/A   Clear
7:35 AM 32.9 °F 29.8 °F 31.8 °F 96% 30.37 in 10.0 mi NNW 3.5 mph - N/A   Clear
7:55 AM 33.1 °F 30.0 °F 31.8 °F 95% 30.38 in 10.0 mi North 3.5 mph - N/A   Clear
8:15 AM 34.0 °F 29.8 °F 32.0 °F 92% 30.39 in 10.0 mi NNW 4.6 mph - N/A   Clear
8:35 AM 35.1 °F 31.0 °F 32.0 °F 89% 30.41 in 10.0 mi North 4.6 mph - N/A   Clear
8:55 AM 35.8 °F 30.9 °F 32.0 °F 86% 30.43 in 10.0 mi NNW 5.8 mph - N/A   Clear
9:15 AM 37.0 °F 31.0 °F 32.0 °F 82% 30.44 in 10.0 mi North 8.1 mph - N/A   Clear
9:35 AM 38.5 °F 31.1 °F 31.5 °F 76% 30.46 in 10.0 mi North 11.5 mph - N/A   Clear
9:55 AM 39.7 °F 35.6 °F 30.9 °F 71% 30.48 in 10.0 mi North 5.8 mph - N/A   Clear
10:15 AM 41.7 °F 37.3 °F 30.7 °F 65% 30.49 in 10.0 mi North 6.9 mph - N/A   Clear
10:35 AM 42.8 °F 38.0 °F 30.2 °F 61% 30.48 in 10.0 mi NNW 8.1 mph - N/A   Clear
10:55 AM 43.3 °F 38.1 °F 29.8 °F 59% 30.48 in 10.0 mi North 9.2 mph - N/A   Clear
11:15 AM 43.9 °F 38.8 °F 27.9 °F 53% 30.49 in 10.0 mi North 9.2 mph - N/A   Clear
11:35 AM 44.8 °F 38.7 °F 26.2 °F 48% 30.48 in 10.0 mi North 12.7 mph 17.3 mph N/A   Clear
11:55 AM 46.4 °F 42.4 °F 27.0 °F 47% 30.47 in 10.0 mi North 8.1 mph 16.1 mph N/A   Clear
12:15 PM 46.6 °F - 25.3 °F 43% 30.47 in 10.0 mi North 9.2 mph - N/A   Clear
12:35 PM 47.3 °F - 25.2 °F 42% 30.46 in 10.0 mi NNE 12.7 mph 16.1 mph N/A   Clear
12:55 PM 47.7 °F - 23.4 °F 38% 30.46 in 10.0 mi NNE 12.7 mph - N/A   Clear
1:15 PM 47.8 °F - 23.2 °F 38% 30.45 in 10.0 mi North 6.9 mph - N/A   Clear
1:35 PM 48.4 °F - 20.7 °F 33% 30.46 in 10.0 mi North 11.5 mph 19.6 mph N/A   Clear
1:55 PM 48.7 °F - 21.6 °F 34% 30.45 in 10.0 mi North 11.5 mph 16.1 mph N/A   Clear
2:15 PM 49.3 °F - 19.9 °F 31% 30.45 in 10.0 mi NNW 11.5 mph 16.1 mph N/A   Clear
2:35 PM 49.1 °F - 19.8 °F 31% 30.45 in 10.0 mi North 10.4 mph - N/A   Clear
2:55 PM 49.5 °F - 21.2 °F 33% 30.45 in 10.0 mi NNE 9.2 mph - N/A   Clear
3:15 PM 49.3 °F - 18.9 °F 30% 30.45 in 10.0 mi North 8.1 mph - N/A   Clear
3:35 PM 49.3 °F - 20.1 °F 32% 30.46 in 10.0 mi NNE 5.8 mph - N/A   Clear
3:55 PM 49.3 °F - 20.5 °F 32% 30.46 in 10.0 mi North 5.8 mph - N/A   Clear
4:15 PM 48.9 °F - 20.3 °F 32% 30.46 in 10.0 mi NNW 8.1 mph - N/A   Clear
4:35 PM 48.2 °F - 20.7 °F 34% 30.47 in 10.0 mi North 4.6 mph - N/A   Clear
4:55 PM 47.5 °F - 20.1 °F 34% 30.48 in 10.0 mi NNE 5.8 mph - N/A   Clear
5:15 PM 46.2 °F 44.1 °F 20.8 °F 37% 30.48 in 10.0 mi North 4.6 mph - N/A   Clear
5:35 PM 45.0 °F 43.5 °F 21.7 °F 40% 30.49 in 10.0 mi NNE 3.5 mph - N/A   Clear
5:55 PM 43.7 °F - 22.8 °F 44% 30.49 in 10.0 mi Calm Calm - N/A   Clear
6:15 PM 42.8 °F 41.1 °F 23.5 °F 47% 30.49 in 10.0 mi NNE 3.5 mph - N/A   Clear
6:35 PM 41.5 °F - 24.8 °F 51% 30.51 in 10.0 mi Calm Calm - N/A   Clear
6:55 PM 40.5 °F - 24.8 °F 54% 30.51 in 10.0 mi Calm Calm - N/A   Clear
7:15 PM 39.2 °F - 26.6 °F 61% 30.52 in 10.0 mi Calm Calm - N/A   Clear
7:35 PM 38.7 °F - 26.2 °F 61% 30.52 in 10.0 mi Calm Calm - N/A   Clear
7:55 PM 37.6 °F - 27.0 °F 66% 30.52 in 10.0 mi Calm Calm - N/A   Clear
8:15 PM 36.7 °F 34.1 °F 26.8 °F 67% 30.52 in 10.0 mi NNE 3.5 mph - N/A   Clear
8:35 PM 36.1 °F - 26.8 °F 69% 30.52 in 10.0 mi Calm Calm - N/A   Clear
8:55 PM 35.6 °F 32.8 °F 27.1 °F 71% 30.52 in 10.0 mi NNE 3.5 mph - N/A   Clear
9:15 PM 34.7 °F - 26.6 °F 72% 30.52 in 7.0 mi Calm Calm - N/A   Clear
9:35 PM 34.3 °F - 26.6 °F 73% 30.52 in 10.0 mi Calm Calm - N/A   Clear
9:55 PM 34.0 °F - 26.2 °F 73% 30.52 in 10.0 mi Calm Calm - N/A   Clear
10:15 PM 34.2 °F 31.2 °F 25.3 °F 70% 30.52 in 10.0 mi NE 3.5 mph - N/A   Clear
10:35 PM 33.8 °F 30.8 °F 25.3 °F 71% 30.51 in 10.0 mi NE 3.5 mph - N/A   Clear
10:55 PM 33.4 °F 30.4 °F 25.2 °F 72% 30.51 in 10.0 mi NE 3.5 mph - N/A   Clear
11:15 PM 33.8 °F 30.8 °F 24.8 °F 70% 30.51 in 10.0 mi NE 3.5 mph - N/A   Clear
11:35 PM 33.6 °F 30.6 °F 24.8 °F 70% 30.50 in 10.0 mi NE 3.5 mph - N/A   Clear
11:55 PM 33.3 °F - 24.8 °F 71% 30.50 in 10.0 mi Calm Calm - N/A   Clear